Le nostre stazioni meteo in Italia

Pubblicità
Il mio iltempo24.it
Ferrara, Italia (16138): Temperatura & dewpoint: 15.06.2019 00:00:00 - 21.06.2019 00:00:00 (CEST)Ferrara, Italia (16138): velocità del vento: 15.06.2019 00:00:00 - 21.06.2019 00:00:00 (CEST)Ferrara, Italia (16138): direzione del vento: 15.06.2019 00:00:00 - 21.06.2019 00:00:00 (CEST)Ferrara, Italia (16138): reduced air pressure: 15.06.2019 00:00:00 - 21.06.2019 00:00:00 (CEST)Ferrara, Italia (16138): visibility: 15.06.2019 00:00:00 - 21.06.2019 00:00:00 (CEST)
Data & Tempo tt [°C] td [°C] ff [km/h] ff [kn] dd ppp [hPa] vv [km]
21.06.2019 00:00:00 - - - - - - -
20.06.2019 23:00:00 - - - - - - -
20.06.2019 22:00:00 - - - - - - -
20.06.2019 21:00:00 - - - - - - -
20.06.2019 20:00:00 31,2 12,5 8 4 S 1010,3 30
20.06.2019 19:00:00 33,0 12,0 - - - - 10
20.06.2019 18:00:00 34,0 12,0 - - - - 10
20.06.2019 17:00:00 34,4 12,7 9 5 SE 1010,8 20
20.06.2019 16:00:00 34,0 12,0 - - - - 10
20.06.2019 15:00:00 35,0 13,0 - - - - 10
20.06.2019 14:00:00 35,0 13,8 8 4 O 1012,2 20
20.06.2019 13:00:00 33,0 16,0 - - - - 10
20.06.2019 12:00:00 31,0 19,0 - - - - 10
20.06.2019 11:00:00 29,8 20,7 0 0 N 1012,2 20
20.06.2019 10:00:00 27,0 20,0 - - - - 10
20.06.2019 09:00:00 25,0 17,0 - - - - 10
20.06.2019 08:00:00 21,8 14,7 0 0 N 1012,1 30
20.06.2019 07:00:00 - - - - - - -
20.06.2019 06:00:00 - - - - - - -
20.06.2019 05:00:00 - - - - - - -
20.06.2019 04:00:00 - - - - - - -
20.06.2019 03:00:00 - - - - - - -
20.06.2019 02:00:00 - - - - - - -
20.06.2019 01:00:00 - - - - - - -
20.06.2019 00:00:00 - - - - - - -
19.06.2019 23:00:00 - - - - - - -
19.06.2019 22:00:00 - - - - - - -
19.06.2019 21:00:00 - - - - - - -
19.06.2019 20:00:00 31,8 14,5 0 0 N 1010,7 20
19.06.2019 19:00:00 33,0 15,0 - - - - 10
19.06.2019 18:00:00 34,0 15,0 - - - - 10
19.06.2019 17:00:00 34,2 17,0 0 0 N 1011,2 10
19.06.2019 16:00:00 34,0 16,0 - - - - 10
19.06.2019 15:00:00 34,0 18,0 - - - - 10
19.06.2019 14:00:00 33,4 18,7 5 3 S 1012,5 10
19.06.2019 13:00:00 33,0 20,0 - - - - 10
19.06.2019 12:00:00 31,0 20,0 4 2 - - 10
19.06.2019 11:00:00 29,0 19,6 4 2 O 1013,0 10
19.06.2019 10:00:00 27,0 20,0 0 0 N - 10
19.06.2019 09:00:00 24,0 19,0 - - - - 10
19.06.2019 08:00:00 22,2 20,7 0 0 N 1013,3 10
19.06.2019 07:00:00 - - - - - - -
19.06.2019 06:00:00 - - - - - - -
19.06.2019 05:00:00 - - - - - - -
19.06.2019 04:00:00 - - - - - - -
19.06.2019 03:00:00 - - - - - - -
19.06.2019 02:00:00 - - - - - - -
19.06.2019 01:00:00 - - - - - - -
19.06.2019 00:00:00 - - - - - - -
18.06.2019 23:00:00 - - - - - - -
18.06.2019 22:00:00 - - - - - - -
18.06.2019 21:00:00 - - - - - - -
18.06.2019 20:00:00 30,2 16,6 2 1 E 1013,0 10
18.06.2019 19:00:00 31,0 17,0 - - - - 10
18.06.2019 18:00:00 32,0 17,0 - - - - 10
18.06.2019 17:00:00 31,8 17,7 8 4 NE 1013,6 10
18.06.2019 16:00:00 31,0 18,0 - - - - 10
18.06.2019 15:00:00 32,0 19,0 4 2 - - 10
18.06.2019 14:00:00 31,0 18,4 8 4 E 1014,8 10
18.06.2019 13:00:00 31,0 19,0 4 2 - - 10
18.06.2019 12:00:00 30,0 20,0 5 3 - - 10
18.06.2019 11:00:00 28,8 19,4 4 2 NE 1015,7 12
18.06.2019 10:00:00 27,0 19,0 0 0 N - 10
18.06.2019 09:00:00 26,0 20,0 - - - - 10
18.06.2019 08:00:00 24,2 19,9 0 0 N 1015,6 10
18.06.2019 07:00:00 - - - - - - -
18.06.2019 06:00:00 - - - - - - -
18.06.2019 05:00:00 - - - - - - -
18.06.2019 04:00:00 - - - - - - -
18.06.2019 03:00:00 - - - - - - -
18.06.2019 02:00:00 - - - - - - -
18.06.2019 01:00:00 - - - - - - -
18.06.2019 00:00:00 - - - - - - -
17.06.2019 23:00:00 - - - - - - -
17.06.2019 22:00:00 - - - - - - -
17.06.2019 21:00:00 - - - - - - -
17.06.2019 20:00:00 28,8 18,6 0 0 N 1013,9 12
17.06.2019 19:00:00 30,0 19,0 - - - - 10
17.06.2019 18:00:00 31,0 18,0 - - - - 10
17.06.2019 17:00:00 31,0 18,0 0 0 N 1014,2 12
17.06.2019 16:00:00 31,0 18,0 - - - - 10
17.06.2019 15:00:00 30,0 19,0 - - - - 10
17.06.2019 14:00:00 30,4 19,4 8 4 ENE 1015,8 10
17.06.2019 13:00:00 30,0 19,0 - - - - 10
17.06.2019 12:00:00 29,0 20,0 4 2 - - 10
17.06.2019 11:00:00 27,8 20,9 8 4 E 1016,2 10
17.06.2019 10:00:00 27,0 21,0 - - - - 10
17.06.2019 09:00:00 27,0 21,0 - - - - 10
17.06.2019 08:00:00 24,6 20,1 0 0 N 1015,2 10
17.06.2019 07:00:00 - - - - - - -
17.06.2019 06:00:00 - - - - - - -
17.06.2019 05:00:00 - - - - - - -
17.06.2019 04:00:00 - - - - - - -
17.06.2019 03:00:00 - - - - - - -
17.06.2019 02:00:00 - - - - - - -
17.06.2019 01:00:00 - - - - - - -
17.06.2019 00:00:00 - - - - - - -
16.06.2019 23:00:00 - - - - - - -
16.06.2019 22:00:00 - - - - - - -
16.06.2019 21:00:00 - - - - - - -
16.06.2019 20:00:00 30,6 15,1 0 0 N 1012,0 10
16.06.2019 19:00:00 32,0 16,0 - - - - 10
16.06.2019 18:00:00 32,0 16,0 - - - - 10
16.06.2019 17:00:00 32,8 17,0 4 2 O 1012,8 10
16.06.2019 16:00:00 33,0 18,0 - - - - 10
16.06.2019 15:00:00 33,0 18,0 - - - - 10
16.06.2019 14:00:00 32,2 19,1 5 3 O 1013,9 10
16.06.2019 13:00:00 31,0 20,0 - - - - 10
16.06.2019 12:00:00 30,0 20,0 - - - - 10
16.06.2019 11:00:00 28,2 19,7 9 5 O 1014,0 10
16.06.2019 10:00:00 26,0 20,0 - - - - 10
16.06.2019 09:00:00 24,0 19,0 - - - - 10
16.06.2019 08:00:00 21,4 17,6 0 0 N 1013,8 10
16.06.2019 07:00:00 - - - - - - -
16.06.2019 06:00:00 - - - - - - -
16.06.2019 05:00:00 - - - - - - -
16.06.2019 04:00:00 - - - - - - -
16.06.2019 03:00:00 - - - - - - -
16.06.2019 02:00:00 - - - - - - -
16.06.2019 01:00:00 - - - - - - -
16.06.2019 00:00:00 - - - - - - -
15.06.2019 23:00:00 - - - - - - -
15.06.2019 22:00:00 - - - - - - -
15.06.2019 21:00:00 - - - - - - -
15.06.2019 20:00:00 30,2 18,6 0 0 N 1012,0 10
15.06.2019 19:00:00 31,0 18,0 - - - - 10
15.06.2019 18:00:00 32,0 18,0 - - - - 10
15.06.2019 17:00:00 32,8 19,7 8 4 ONO 1012,9 10
15.06.2019 16:00:00 33,0 19,0 - - - - 10
15.06.2019 15:00:00 33,0 20,0 - - - - 10
15.06.2019 14:00:00 32,2 19,8 8 4 O 1013,9 10
15.06.2019 13:00:00 31,0 20,0 - - - - 10
15.06.2019 12:00:00 30,0 20,0 - - - - 10
15.06.2019 11:00:00 28,0 21,1 4 2 O 1014,0 10
15.06.2019 10:00:00 26,0 21,0 - - - - 10
15.06.2019 09:00:00 24,0 20,0 - - - - 10
15.06.2019 08:00:00 22,2 19,2 0 0 N 1013,2 10
15.06.2019 07:00:00 - - - - - - -
15.06.2019 06:00:00 - - - - - - -
15.06.2019 05:00:00 - - - - - - -
15.06.2019 04:00:00 - - - - - - -
15.06.2019 03:00:00 - - - - - - -
15.06.2019 02:00:00 - - - - - - -
15.06.2019 01:00:00 - - - - - - -
15.06.2019 00:00:00 - - - - - - -

tt = Temperatura
td = dewpoint
ff = velocità del vento
dd = direzione del vento
ppp = reduced air pressure
vv = visibility

Stazioni seguenti

WeatherPro
AMSI
MeteoEarth